Flag for Norway Weather past 2 weeks in Rygge, Norway

Now
52 °F

Passing clouds.


Feels Like: 52 °F
Forecast: 50 / 61 °F
Wind: 2 mph from East

Location: Rygge

Current Time: Sep 4, 2015 at 12:12:24 AM

Latest Report: Sep 3, 2015 at 10:00 PM


Visibility: 28 mi

Pressure: 29.91 "Hg

Humidity: 91%

Dew point: 50 °F

Location of RyggeLocation

Historic Weather in Rygge — Graph

°F

Rygge temperature yesterday

Maximum temperature yesterday: 63 °F (at 2:00 PM)
Minimum temperature yesterday: 52 °F (at 10:00 PM)
Average temperature yesterday: 57 °F

Past Weeks' High & Low Weather Summary

 TemperatureHumidityPressure
High76 °F (Aug 23, 3:00 PM)99% (Aug 31, 4:00 AM)30.38 "Hg (Aug 31, 4:00 AM)
Low45 °F (Aug 22, 5:00 AM)35% (Aug 22, 6:00 PM)29.50 "Hg (Aug 27, 5:00 PM)
Average61 °F78%29.97 "Hg
* Reported Aug 19 10:00 PM — Sep 3 10:00 PM, Rygge, Weather by CustomWeather, © 2015

Note: Actual official high and low records may vary slightly from our data, if they occured in-between our weather recording intervals... More about our weather records

Advertising

Rygge weather history for previous 24 hours

 ConditionsComfort  
Time TempWeatherWind HumidityBarometerVisibility
10:00 PM
Thu, Sep 3
52 °FPassing clouds.2 mph91%29.91 "Hg28 mi
9:00 PM54 °FOvercast.2 mph89%29.92 "Hg22 mi
8:00 PM58 °FSunny.1 mph73%29.90 "Hg25 mi
7:00 PM61 °FPartly sunny.2 mph65%29.89 "Hg25 mi
6:00 PM61 °FPassing clouds.3 mph66%29.89 "Hg17 mi
5:00 PM62 °FPassing clouds.5 mph64%29.88 "Hg18 mi
4:00 PM63 °FPassing clouds.6 mph64%29.88 "Hg19 mi
3:00 PM63 °FScattered clouds.6 mph64%29.88 "Hg17 mi
2:00 PM63 °FScattered clouds.6 mph67%29.87 "Hg19 mi
1:00 PM62 °FPartly sunny.6 mph70%29.87 "Hg17 mi
12:00 PM60 °FPartly sunny.6 mph78%29.86 "Hg19 mi
11:00 AM59 °FScattered clouds.5 mph82%29.86 "Hg17 mi
10:00 AM59 °FLow clouds.5 mph88%29.85 "Hg15 mi
9:00 AM57 °FPartly sunny.6 mph91%29.83 "Hg16 mi
8:00 AM56 °FSunny.6 mph92%29.82 "Hg14 mi
7:00 AM54 °FLight rain. Passing clouds.5 mph95%29.81 "Hg14 mi
5:00 AM54 °FRain showers. Overcast.5 mph97%29.79 "Hg5 mi
4:00 AM53 °FPassing clouds.5 mph98%29.78 "Hg11 mi
3:00 AM53 °FPassing clouds.No wind98%29.78 "Hg10 mi
2:00 AM53 °FRain showers. Passing clouds.2 mph97%29.78 "Hg31 mi
1:00 AM53 °FLight rain. Overcast.1 mph97%29.77 "Hg9 mi
12:00 AM55 °FRain showers. Low clouds.3 mph96%29.76 "Hg2 mi
Weather by CustomWeather, © 2015

See weather overviewHow to use our weather pages